Погода в Николаевке

Украина / Одесская область     46˚22′08″N   29˚24′22″E
темп.,
°C
ветер,
м/с
пор.,
м/с
влажн.,
%
обл.,
%
осадки,
мм/ч
давл.,
гПа
погр.,
м
16 января, сб
сб1623:00−5˚сз377375 0.0 1017261
02:00−5˚зсз237375 0.0 1017131
05:00−5˚сз237240 0.0 1016208
08:00−5˚сз126970 0.0 1016190
11:00−4˚зсз225599 0.0 1017580
14:00−2˚ссз355073 0.0 10161162
17:00−5˚с586693 0.0 1016413
20:00−7˚с595555 0.0 1016456
17 января, вс
вс1723:00−8˚с585878 0.0 1017607
02:00−9˚ссв476282 0.0 1017623
05:00−10˚с476489 0.0 1016526
08:00−10˚с476695 0.0 1017463
11:00−8˚ссв355795 0.0 1018641
14:00−6˚ссз465672 0.0 1016608
17:00−7˚с366770 0.0 1016320
20:00−6˚ссз126885 0.0 1017182
18 января, пн
пн1823:00−6˚з1177100 0.0 1018132
02:00−6˚сз3689100 0.0 1018306
05:00−6˚зсз4791100 0.1 1019408
08:00−6˚ссз5788100 0.2 1020621
11:00−6˚сз5773100 0.1 1021820
14:00−5˚зсз5773100 0.1 1020872
17:00−5˚сз5967100 0.0 10211034
20:00−7˚сз4872100 0.0 1022761
19 января, вт
вт1923:00−8˚сз596991 0.0 1022798
02:00−9˚сз4107357 0.0 1023588
05:00−10˚ссз5107332 0.0 1023541
08:00−10˚сз387740 0.0 1024457
11:00−7˚сз58634 0.0 1025577
14:00−5˚сз575713 0.0 1024819
17:00−6˚ссз23674 0.0 102554
20:00−7˚ссз11712 0.0 102621
20 января, ср
ср2023:00−7˚ю00710 0.0 102621
02:00−7˚ююв12722 0.0 102721
05:00−8˚ююв22740 0.0 102721
08:00−8˚ююв23750 0.0 102744
11:00−3˚ююв46600 0.0 1028379
14:00ююв57540 0.0 1026525
17:00−2˚ююв35700 0.0 102684
20:00−3˚ю47760 0.0 1026142